COSMOS 2456 (730)

Last updated on Sat Apr 11 2026 00:03:25 GMT+0000 (Coordinated Universal Time)

1 36111U 09070A 26100.00493693 .00000038 00000+0 00000+0 0 9990 2 36111 64.9727 73.2963 0006422 311.4730 197.4512 2.13103762126971
UTC large
Height (km)
Speed (km/s)
/
Latitude / Longitude
Inclination (degrees)
Orbital Period (minutes)
Azimuth
Elevation
Range (km)
Doppler Factor

Next 0 passes for location: London (51.5072 / 0.1276)

Sorry there are no passes over London.
COSMOS 2456 (730)